Regional Weather Roundup
Issued by NWS Boston, MA

Current Version | Previous Version | Text Only | Print | Product List | Glossary On
Versions: 1 2 3 4 5 6 7 8 9 10 11 12 13 14 15 16 17 18 19 20 21 22 23 24 25 26 27 28 29 30 31 32 33 34 35 36 37 38 39 40 41 42 43 44 45 46 47 48 49 50
000 ASUS41 KBOX 160310 RWRBOX REGIONAL WEATHER ROUNDUP NATIONAL WEATHER SERVICE BOSTON/NORTON MA 1000 PM EST SAT DEC 15 2018 NOTE: "FAIR" INDICATES FEW OR NO CLOUDS BELOW 12,000 FEET WITH NO SIGNIFICANT WEATHER AND/OR OBSTRUCTIONS TO VISIBILITY. MAZALL-160400- EASTERN MASSACHUSETTS CITY SKY/WX TMP DP RH WIND PRES REMARKS BOSTON MOCLDY 41 31 67 N8 30.25S BEVERLY FAIR 40 29 64 N6 30.25S LAWRENCE FAIR 38 24 57 NE5 30.28S BEDFORD MOCLDY 36 27 69 N6 30.25R WCI 31 BLUE HILL N/A 39 32 76 NE14G22 30.21S WCI 31 NORWOOD FAIR 44 33 65 NE6 30.25R MARSHFIELD FAIR 45 36 70 NE10 30.24R PLYMOUTH FAIR 43 34 70 NE9 30.23R TAUNTON FAIR 42 35 76 NE3 30.22R NEW BEDFORD FAIR 43 38 82 NE8 30.21R $$ MAZALL-160400- CAPE COD AND THE ISLANDS CITY SKY/WX TMP DP RH WIND PRES REMARKS FALMOUTH NOT AVBL HYANNIS FAIR 43 34 70 NE12 30.20R CHATHAM FAIR 44 36 73 NE14G21 30.21S PROVINCETOWN FAIR 44 35 70 NE17 30.23S NANTUCKET FAIR 44 37 76 NE15 30.18R MARTHAS VNYRD FAIR 42 37 82 NE14 30.20R $$ MAZALL-160400- CENTRAL AND WESTERN MASSACHUSETTS CITY SKY/WX TMP DP RH WIND PRES REMARKS WORCESTER FAIR 37 27 67 NE9 30.21S WCI 30 FITCHBURG FAIR 33 27 78 NW5 30.27R WCI 29 ORANGE FAIR 32 28 85 CALM 30.26R SPRINGFIELD CLOUDY 40 28 64 NE9 30.21S WESTFIELD FAIR 40 29 64 N10 30.22S NORTH ADAMS FAIR 31 29 92 CALM 30.23R PITTSFIELD FAIR 37 27 67 NE7 30.18S WCI 32 $$ RIZALL-160400- RHODE ISLAND CITY SKY/WX TMP DP RH WIND PRES REMARKS PROVIDENCE CLOUDY 42 36 79 NE9 30.21S NEWPORT FAIR 43 37 79 NE12 30.20R BLOCK ISLAND FAIR 45 38 76 NE16G24 N/A SMITHFIELD FAIR 39 35 86 NE10 30.22R WESTERLY FAIR 46 39 76 NE13 30.20R $$ CTZALL-160400- CONNECTICUT CITY SKY/WX TMP DP RH WIND PRES REMARKS BRADLEY INTL CLOUDY 40 33 76 N10 30.21S HARTFORD MOCLDY 44 34 67 N5 30.21R BRIDGEPORT FAIR 48 37 65 NE14 30.16F DANBURY FAIR 44 34 67 NE9 30.16F GROTON FAIR 45 36 70 NE10 30.20R NEW HAVEN FAIR 48 36 63 NE13 30.17S CHESTER FAIR 45 36 70 NE10 30.19R MERIDEN FAIR 44 35 70 VRB6 30.19R WILLIMANTIC FAIR 42 35 76 NE9 30.21R OXFORD FAIR 43 35 73 NE13G22 30.17R $$ MEZ002-015-021-024-NHZ003-005-008-011-012-014-VTZ005-008-160400- NORTHERN NEW ENGLAND CITY SKY/WX TMP DP RH WIND PRES REMARKS PORTLAND ME FAIR 35 25 66 VRB5 30.28R WCI 31 BANGOR ME FAIR 29 24 82 NW6 30.26R WCI 23 CONCORD NH FAIR 24 22 91 CALM 30.27R MANCHESTER NH MOCLDY 34 26 72 CALM 30.25S NASHUA NH FAIR 30 27 88 CALM 30.28R PORTSMOUTH NH MOCLDY 36 24 60 N3 30.26R JAFFREY NH FAIR 29 28 96 CALM 30.25R KEENE NH FAIR 26 24 92 CALM 30.28R BURLINGTON VT FAIR 32 28 85 NE6 30.27F WCI 26 MT. WASHINGTON PTCLDY 25 0 33 NW20 N/A WCI 11 $$ NYZ052-076-160400- EASTERN NEW YORK CITY SKY/WX TMP DP RH WIND PRES REMARKS ALBANY MOCLDY 37 26 64 N9 30.25R WCI 30 NEW YORK CITY CLOUDY 47 39 74 E15 30.12F $$ ANZALL-160400- MARINE OBSERVATIONS STATION/POSITION TIME TEMP WIND PRES VSBY WAVE AIR SEA DIR/SP/G HT/PER (UTC) (F) (DEG/KT/KT) (MB) (MI) (FT/S) BOSTON BUOY 0250 45 46 40/ 16/ 19 1023.4F 4/ 5 BUZZARDS BAY 0200 43 40/ 19/ 20 1022.1F NANTUCKET SOUND 0250 42 40 40/ 12/ 14 1022.6R 2/ 4 MASS BAY-STELLWA 0204 44 44 50/ 16/ 19 1023.3R 1 7/8 6/ 5 ISLE OF SHOALS 0200 43 20/ 21/ 22 1023.7R S OF BLOCK IS 0243 49 N/A 6/ 5 $$ ......................KEY......................... SKY/WX - SKY CONDITION/PRESENT WEATHER TMP - TEMPERATURE IN FAHRENHEIT DWPT - DEWPOINT IN FAHRENHEIT RH - RELATIVE HUMIDITY IN PERCENT WIND - DIRECTION AND SPEED IN MPH PRES - MEAN SEA LEVEL PRESSURE IN INCHES OF HG WCI - WIND CHILL INDEX VSB - VISIBILITY IN MILES HX - HEAT INDEX TC - TEMPERATURE IN CELSIUS VRB - VARIABLE WIND DIRECTION N/A - NOT AVAILABLE

USA.gov is the U.S. government's official web portal to all federal, state and local government web resources and services.